Regional Weather Roundup
Issued by NWS Sterling, VA

Home | Current Version | Previous Version | Graphics & Text | Print | Product List | Glossary On
Versions: 1 2 3 4 5 6 7 8 9 10 11 12 13 14 15 16 17 18 19 20 21 22 23 24 25 26 27
000
ASUS41 KLWX 280611
RWRLWX

REGIONAL WEATHER ROUNDUP
NATIONAL WEATHER SERVICE BALTIMORE MD/WASHINGTON DC
200 AM EDT WED JUN 28 2017

Note: "FAIR" indicates few or no clouds below 12,000 feet
with no significant weather and/or obstructions to visibility.
 TC=TEMPERATURE CELSIUS

 * =Non NWS site. Station does not report precipitation (e.g. rain,
    snow, etc.), thunder, or fog.

DCZ001-MDZ009-015-VAZ040>042-051-053>054-280700-
WASHINGTON METRO

CITY           SKY/WX    TMP DP  RH WIND       PRES   REMARKS
WASHINGTON NAT PTCLDY    67  48  50 CALM      30.11R
DULLES         PTCLDY    55  48  77 CALM      30.11S
ANDREWS AFB    CLEAR     58  48  70 CALM      30.10R
FT BELVOIR     PTCLDY    56  50  78 CALM      30.11R
QUANTICO       CLEAR     62  54  74 NW7       30.12R
COLLEGE PARK*  CLEAR     57  49  76 CALM      30.11R
LEESBURG*      CLEAR     63  50  63 N6        30.12S
MANASSAS*      CLEAR     55  51  86 CALM      30.12S
GAITHERSBURG*  CLEAR     55  50  83 CALM      30.12R

$$

MDZ006>007-011-014-280700-
BALTIMORE METRO

CITY           SKY/WX    TMP DP  RH WIND       PRES   REMARKS
BWI AIRPORT    CLEAR     58  50  75 CALM      30.10R
MD SCIENCE CTR   N/A     68  47  46 MISG      30.11R
MARTIN STATE   CLEAR     61  50  67 CALM      30.11S
ANNAPOLIS      PTCLDY    63  53  70 W3        30.09R
FORT MEADE*    CLEAR     54  50  87 CALM      30.13R

$$

MDZ012-015-019>023-280700-
MARYLAND EASTERN SHORE

CITY           SKY/WX    TMP DP  RH WIND       PRES   REMARKS
OCEAN CITY     PTCLDY    64  54  69 NW9       30.07S
SALISBURY      CLEAR     63  56  78 N6        30.08R
BAY BRIDGE AP* CLEAR     70  50  49 N8G17     30.10R
CAMBRIDGE*     CLEAR     66  52  59 N6        30.09S
EASTON*        CLEAR     63  50  62 CALM      30.13S

$$

MDZ017>025-280700-
SOUTHERN MARYLAND

CITY           SKY/WX    TMP DP  RH WIND       PRES   REMARKS
PATUXENT RIVER CLEAR     69  50  50 N12       30.09S
ST INIGOES     CLEAR     64  54  69 CALM      30.08S
LEONARDTOWN*   CLEAR     64  48  55 CALM      30.11F

$$

MDZ003>005-280700-
NORTH CENTRAL MARYLAND

CITY           SKY/WX    TMP DP  RH WIND       PRES   REMARKS
FREDERICK*     CLEAR     54  52  94 CALM      30.14S
HAGERSTOWN APT CLEAR     62  48  60 CALM      30.12R
WESTMINSTER*   CLEAR     61  50  67 CALM      30.12R

$$

MDZ501>502-280700-
WESTERN MARYLAND

CITY           SKY/WX    TMP DP  RH WIND       PRES   REMARKS
OAKLAND*       NOT AVBL
CUMBERLAND*    CLEAR     54  52  94 CALM      30.18S

$$

VAZ025>031-280700-
SHENANDOAH VALLEY

CITY           SKY/WX    TMP DP  RH WIND       PRES   REMARKS
WINCHESTER*    CLEAR     54  46  76 CALM      30.13S
FRONT ROYAL*   CLEAR     55  48  76 S7        30.13S
LURAY*         CLEAR     55  50  82 CALM      30.15R
NEW MARKET*    CLEAR     50  47  90 CALM      30.15S
STAUNTON*      CLEAR     51  47  86 CALM      30.17S
WAYNESBORO*    PTCLDY    52  50  94 CALM      30.16S

$$

WVZ021-048>050-054>055-280700-
EASTERN WEST VIRGINIA PANHANDLE

CITY           SKY/WX    TMP DP  RH WIND       PRES   REMARKS
MARTINSBURG    CLEAR     53  47  79 CALM      30.12R
PETERSBURG*    CLEAR     51  50  95 CALM      30.17S

$$

VAZ036>039-050-280700-
CENTRAL FOOTHILLS

CITY           SKY/WX    TMP DP  RH WIND       PRES   REMARKS
CHARLOTTESVILL CLEAR     61  49  64 CALM      30.12S
CULPEPER*      CLEAR     52  51  96 CALM      30.13S
ORANGE*        CLEAR     54  50  87 CALM      30.13R
GORDONSVILLE*  CLEAR     55  51  85 CALM      30.12S
WARRENTON*     CLEAR     51  46  85 CALM      30.12R

$$

VAZ055>057-280700-
NORTH AND CENTRAL PIEDMONT

CITY           SKY/WX    TMP DP  RH WIND       PRES   REMARKS
FREDERICKSBRG* CLEAR     59  54  82 NW5       30.11R
STAFFORD*      PTCLDY    53  53  97 CALM      30.16R

$$

NCZ024-NYZ072-PAZ021-071-VAZ022-071-280700-
OTHER REGIONAL OBSERVATIONS

CITY           SKY/WX    TMP DP  RH WIND       PRES   REMARKS
NEW YORK CITY  CLEAR     66  49  54 VRB6      30.06R
PHILADELPHIA   CLEAR     66  48  52 NW8       30.08R
PITTSBURGH     CLEAR     54  48  80 CALM      30.12F
ROANOKE        CLEAR     56  48  74 CALM      30.18R
RICHMOND       CLEAR     63  53  70 N8        30.10R
RALEIGH        CLEAR     60  57  89 CALM      30.12R

$$

ANZ530>537-280700-
MARINE OBSERVATIONS

STATION/POSITION TIME  TEMP    WIND        PRES
                       AIR SEA DIR/SP/G
                 (UTC) (F)     (DEG/KT/KT) (MB)
THOMAS PT LIGHT  0600   68 77  320/ 10/ 12   N/A
BALT KEY BRIDGE  0548          320/ 10/ 12 1018.8R
COVE POINT       0548           10/ 12/ 20 1019.5R
LEWISETTA        0548           10/  8/ 11 1018.8R
SOLOMONS ISLAND  0548          350/  9/ 11   N/A
PINEY POINT      0548           20/  7/  9   N/A

$$





USA.gov is the U.S. government's official web portal to all federal, state and local government web resources and services.